Regional Weather Roundup
Issued by NWS Jackson, KY

Home | Current Version | Previous Version | Text Only | Print | Product List | Glossary Off
Versions: 1 2 3 4 5 6 7 8 9 10 11 12 13 14 15 16 17 18 19 20 21 22 23 24 25 26 27

000
ASUS43 KJKL 270510
RWRJKL

EAST KENTUCKY HOURLY WEATHER ROUNDUP
NATIONAL WEATHER SERVICE JACKSON KY
100 AM EDT WED JUL 27 2016

NOTE: "FAIR" INDICATES FEW OR NO CLOUDS BELOW 12,000 FEET WITH
NO SIGNIFICANT WEATHER AND/OR OBSTRUCTIONS TO VISIBILITY.

* THESE REPORTS ARE NOT UNDER NWS QUALITY CONTROL AND MAY NOT
  REPORT WEATHER SUCH AS PRECIPITATION AND FOG.

KYZ079-080-083-085-087-088-110-112-115-119-120-270600
...EASTERN KENTUCKY...

CITY           SKY/WX    TMP DP  RH WIND       PRES   REMARKS
JACKSON        CLEAR     75  71  87 CALM      30.05S
LONDON         PTCLDY    77  72  84 CALM      30.03F
SOMERSET*      CLEAR     73  73 100 CALM      30.03F
MONTICELLO*    CLEAR    N/A N/A N/A W3        30.03F
WILLIAMSBURG*  PTCLDY    75  75 100 S5        30.04F
MIDDLESBORO*   CLEAR     74  72  93 CALM      30.05F
HARLAN APT*      N/A     73  70  88 CALM      30.07S
PIKE CO APT*     N/A     74  72  92 CALM      30.06S
BIG SANDY APT* CLEAR     72  71  99 CALM      30.04S
MOREHEAD APT*  CLOUDY    72  72 100 CALM      30.05S FOG
ASHLAND*       PTCLDY    73  72  94 CALM      29.99S
$$

KYZ035-036-041-042-044-050-067-078-099-270600
...CENTRAL KENTUCKY...

CITY           SKY/WX    TMP DP  RH WIND       PRES   REMARKS
MT STERLING*   PTCLDY    72  72 100 CALM      30.04F
FLEMING/MASON* PTCLDY    72  72  98 CALM      30.04R
DANVILLE*      CLEAR     73  72  94 CALM      30.04F
LEXINGTON      CLEAR     76  71  85 CALM      30.03S
FRANKFORT      CLEAR     75  72  90 CALM      30.01S
LOUISVILLE     MOCLDY    80  73  79 E6        29.99F
LEBANON*         N/A     75  73  94 NE3       30.02S
GLASGOW*       PTCLDY    78  78 100 CALM      29.99F
BOWLING GREEN  CLOUDY    83  76  79 CALM      29.99S HX  91
$$

KYZ091>093-OHZ055-061-077-WVZ005-015-034-035-042-270600
...SOUTHERN OHIO/WEST VIRGINIA...

CITY           SKY/WX    TMP DP  RH WIND       PRES   REMARKS
COVINGTON      MOCLDY    76  74  93 W3        30.02S
COLUMBUS       CLOUDY    75  72  90 E6        30.01R
DAYTON         MOCLDY    75  68  78 NW5       30.04R
WILMINGTON     CLOUDY    74  73  97 CALM      30.03R
HUNTINGTON     FOG       71  69  93 CALM      30.01R VSB 1
CHARLESTON     FOG       72  71  97 CALM      30.02S VSB 1/8
PINEVILLE*       N/A     71  68  90 MISG      30.13S FOG
BECKLEY          N/A     69  67  93 S3        30.12R
BLUEFIELD        N/A     71  68  90 SW3       30.15R
LOGAN CO APT*  FOG       72  72 100 CALM      30.06R VSB<1/4
$$

VAZ002-007-008-TNZ017-027-036-066-071-270600
...SOUTHWEST VIRGINIA/EAST TENNESSEE...

CITY           SKY/WX    TMP DP  RH WIND       PRES   REMARKS
WISE*            N/A     72  70  94 S3        30.15S
JONESVILLE*      N/A     73  73 100 CALM      30.08S
ABINGDON*        N/A     75  71  87 CALM      30.10F
BRISTOL        PTCLDY    73  69  87 NE3       30.07S
MORRISTOWN*    CLOUDY    81  73  78 W5        30.05S
SEVIERVILLE*   PTCLDY    77  70  78 CALM      30.04F
KNOXVILLE      CLOUDY    79  73  82 SW8       30.03F
OAK RIDGE      MOCLDY    82  71  69 CALM      30.04F
CROSSVILLE     CLOUDY    76  70  82 CALM      30.08F
NASHVILLE      CLOUDY    76  73  91 S3        30.00S
$$

...KEY TO REMARKS...
VSB - VISIBILITY IN MILES
WCI - WIND CHILL INDEX
HX  - HEAT INDEX

$$




USA.gov is the U.S. government's official web portal to all federal, state and local government web resources and services.